TOM4TJ LEIB-EGGD

Flight info

Callsign TOM4TJ
Flight time 2h 0m
Altitude 40000
Route EPAMA DCT MARTA DCT EBROX DCT UMURE N863 GIROM DCT AGN DCT SECHE DCT UVELI DCT CNA DCT MANAK DCT MUREL DCT NOZHU DCT SHIRI DCT TOJAQ
Aircraft B38M/M-SDE1FGHILORVWXY/HB1

Departure

Time 2026-05-06 19:14
Airport Ibiza Airport (LEIB)

Arrival

Time 2026-05-06 21:14
Airport Bristol Airport (EGGD)
Time Latitude Longitude Altitude Speed Heading
2026-05-06 18:50 38.87503 1.36794 11 ft 0 kts 18°
2026-05-06 18:51 38.87534 1.36870 11 ft 0 kts 332°
2026-05-06 19:06 38.87522 1.36878 12 ft 4 kts 340°
2026-05-06 19:06 38.87497 1.36882 14 ft 4 kts 10°
2026-05-06 19:06 38.87473 1.36869 11 ft 4 kts 43°
2026-05-06 19:06 38.87462 1.36851 11 ft 0 kts 62°
2026-05-06 19:08 38.87459 1.36845 11 ft 4 kts 62°
2026-05-06 19:08 38.87433 1.36781 12 ft 10 kts 63°
2026-05-06 19:08 38.87421 1.36749 12 ft 0 kts 63°
2026-05-06 19:09 38.87425 1.36758 11 ft 2 kts 63°
2026-05-06 19:09 38.87427 1.36764 11 ft 0 kts 69°
2026-05-06 19:10 38.87426 1.36766 11 ft 1 kts 92°
2026-05-06 19:10 38.87404 1.36795 11 ft 10 kts 148°
2026-05-06 19:10 38.87334 1.36842 11 ft 12 kts 152°
2026-05-06 19:10 38.87267 1.36816 11 ft 11 kts 236°
2026-05-06 19:11 38.87225 1.36724 11 ft 13 kts 242°
2026-05-06 19:11 38.87184 1.36619 11 ft 14 kts 244°
2026-05-06 19:11 38.87139 1.36502 11 ft 15 kts 244°
2026-05-06 19:11 38.87090 1.36375 12 ft 17 kts 242°
2026-05-06 19:12 38.87050 1.36289 10 ft 17 kts 241°
2026-05-06 19:12 38.86991 1.36148 10 ft 19 kts 242°
2026-05-06 19:12 38.86929 1.35996 11 ft 20 kts 242°
2026-05-06 19:12 38.86818 1.35822 10 ft 19 kts 179°
2026-05-06 19:13 38.86714 1.35906 8 ft 13 kts 112°
2026-05-06 19:13 38.86782 1.36098 8 ft 57 kts 62°
2026-05-06 19:13 38.87096 1.36844 12 ft 130 kts 62°
2026-05-06 19:13 38.87614 1.38105 41 ft 185 kts 62°
2026-05-06 19:14 38.88043 1.39133 245 ft 205 kts 62°
2026-05-06 19:14 38.88721 1.40861 936 ft 226 kts 72°
2026-05-06 19:14 38.88987 1.42766 2330 ft 213 kts 81°
2026-05-06 19:14 38.89243 1.44614 3409 ft 211 kts 81°
2026-05-06 19:15 38.89634 1.47127 4409 ft 226 kts 79°
2026-05-06 19:15 38.89859 1.48496 4808 ft 238 kts 79°
2026-05-06 19:15 38.90225 1.50663 5364 ft 258 kts 78°
2026-05-06 19:15 38.90646 1.52944 6006 ft 272 kts 71°
2026-05-06 19:16 38.91648 1.54980 6947 ft 273 kts 44°
2026-05-06 19:16 38.93050 1.56667 7722 ft 281 kts 41°
2026-05-06 19:16 38.94491 1.58369 8617 ft 283 kts 40°
2026-05-06 19:16 38.95961 1.60086 9467 ft 288 kts 40°
2026-05-06 19:17 38.97455 1.61819 10289 ft 291 kts 40°
2026-05-06 19:17 38.98977 1.63577 10996 ft 298 kts 39°
2026-05-06 19:17 39.00720 1.64991 11696 ft 297 kts 16°
2026-05-06 19:17 39.02750 1.65480 12392 ft 300 kts
2026-05-06 19:18 39.04824 1.65802 13047 ft 306 kts
2026-05-06 19:18 39.06955 1.66119 13756 ft 311 kts
2026-05-06 19:18 39.09139 1.66309 14241 ft 319 kts 351°
2026-05-06 19:18 39.11260 1.65531 14719 ft 320 kts 333°
2026-05-06 19:19 39.13045 1.64549 15130 ft 328 kts 334°
2026-05-06 19:19 39.15151 1.63402 15822 ft 329 kts 333°
2026-05-06 19:19 39.17270 1.62232 16441 ft 333 kts 333°
2026-05-06 19:19 39.19404 1.61046 17083 ft 335 kts 333°
2026-05-06 19:20 39.21555 1.59845 17703 ft 338 kts 333°
2026-05-06 19:20 39.23693 1.58650 18296 ft 341 kts 332°
2026-05-06 19:20 39.25880 1.57426 18811 ft 344 kts 332°
2026-05-06 19:20 39.28087 1.56189 19325 ft 347 kts 332°
2026-05-06 19:21 39.30307 1.54944 19821 ft 350 kts 331°
2026-05-06 19:21 39.32549 1.53686 20312 ft 353 kts 331°
2026-05-06 19:21 39.34807 1.52418 20825 ft 355 kts 332°
2026-05-06 19:21 39.37079 1.51143 21328 ft 357 kts 332°
2026-05-06 19:22 39.39367 1.49857 21799 ft 360 kts 332°
2026-05-06 19:22 39.41671 1.48561 22261 ft 363 kts 331°
2026-05-06 19:22 39.43995 1.47252 22724 ft 365 kts 331°
2026-05-06 19:22 39.46303 1.45952 23168 ft 368 kts 331°
2026-05-06 19:23 39.48655 1.44626 23600 ft 371 kts 331°
2026-05-06 19:23 39.51032 1.43284 23893 ft 375 kts 331°
2026-05-06 19:23 39.53432 1.41929 24002 ft 376 kts 331°
2026-05-06 19:23 39.55826 1.40576 24427 ft 375 kts 330°
2026-05-06 19:24 39.58225 1.39220 24803 ft 378 kts 330°
2026-05-06 19:24 39.60723 1.38077 25166 ft 388 kts 344°
2026-05-06 19:24 39.63434 1.37700 25524 ft 394 kts 348°
2026-05-06 19:24 39.66181 1.37381 25798 ft 398 kts 348°
2026-05-06 19:25 39.68907 1.37065 26140 ft 400 kts 348°
2026-05-06 19:25 39.71686 1.36743 26456 ft 403 kts 348°
2026-05-06 19:25 39.74487 1.36419 26776 ft 405 kts 348°
2026-05-06 19:25 39.77305 1.36093 27095 ft 407 kts 348°
2026-05-06 19:26 39.80136 1.35765 27425 ft 410 kts 347°
2026-05-06 19:26 39.82986 1.35435 27743 ft 412 kts 347°
2026-05-06 19:26 39.85843 1.35104 28053 ft 414 kts 347°
2026-05-06 19:26 39.88724 1.34770 28349 ft 416 kts 347°
2026-05-06 19:27 39.91573 1.34439 28644 ft 418 kts 347°
2026-05-06 19:27 39.94479 1.34101 28931 ft 420 kts 347°
2026-05-06 19:27 39.97401 1.33761 29223 ft 422 kts 347°
2026-05-06 19:27 40.00334 1.33419 29501 ft 424 kts 347°
2026-05-06 19:28 40.03283 1.33075 29805 ft 426 kts 347°
2026-05-06 19:28 40.06246 1.32730 30045 ft 429 kts 347°
2026-05-06 19:28 40.09226 1.32382 30276 ft 431 kts 347°
2026-05-06 19:28 40.12218 1.32032 30519 ft 432 kts 347°
2026-05-06 19:29 40.15173 1.31686 30750 ft 433 kts 347°
2026-05-06 19:29 40.18183 1.31334 30981 ft 435 kts 347°
2026-05-06 19:29 40.21204 1.30980 31213 ft 436 kts 346°
2026-05-06 19:29 40.24231 1.30625 31439 ft 438 kts 346°
2026-05-06 19:30 40.27270 1.30268 31673 ft 439 kts 346°
2026-05-06 19:30 40.30323 1.29909 31881 ft 441 kts 346°
2026-05-06 19:30 40.33383 1.29549 32115 ft 442 kts 346°
2026-05-06 19:30 40.36449 1.29188 32335 ft 443 kts 346°
2026-05-06 19:31 40.39527 1.28826 32555 ft 444 kts 346°
2026-05-06 19:31 40.42568 1.28467 32769 ft 445 kts 346°
2026-05-06 19:31 40.48753 1.27737 33227 ft 447 kts 346°
2026-05-06 19:32 40.51858 1.27370 33449 ft 448 kts 346°
2026-05-06 19:32 40.54966 1.27002 33647 ft 449 kts 346°
2026-05-06 19:32 40.58085 1.26632 33848 ft 450 kts 346°
2026-05-06 19:32 40.61207 1.26262 34030 ft 451 kts 346°
2026-05-06 19:33 40.64299 1.25896 34183 ft 453 kts 346°
2026-05-06 19:33 40.67442 1.25522 34335 ft 454 kts 346°
2026-05-06 19:33 40.70592 1.25148 34490 ft 455 kts 346°
2026-05-06 19:33 40.73754 1.24771 34644 ft 457 kts 346°
2026-05-06 19:34 40.76923 1.24394 34796 ft 458 kts 347°
2026-05-06 19:34 40.80103 1.24014 34943 ft 459 kts 347°
2026-05-06 19:34 40.83291 1.23634 35092 ft 461 kts 347°
2026-05-06 19:34 40.86488 1.23251 35233 ft 462 kts 347°
2026-05-06 19:35 40.89698 1.22867 35374 ft 463 kts 347°
2026-05-06 19:35 40.92911 1.22483 35545 ft 465 kts 347°
2026-05-06 19:35 40.96094 1.22101 35674 ft 466 kts 347°
2026-05-06 19:35 40.99329 1.21713 35817 ft 467 kts 348°
2026-05-06 19:36 41.02563 1.21325 35932 ft 467 kts 348°
2026-05-06 19:36 41.05792 1.20936 35941 ft 465 kts 348°
2026-05-06 19:36 41.12216 1.20163 35966 ft 463 kts 348°
2026-05-06 19:37 41.18596 1.19393 35963 ft 463 kts 348°
2026-05-06 19:37 41.25014 1.18618 35966 ft 463 kts 348°
2026-05-06 19:38 41.31436 1.17841 35970 ft 463 kts 348°
2026-05-06 19:38 41.37855 1.17061 35967 ft 463 kts 348°
2026-05-06 19:39 41.44257 1.16283 35949 ft 462 kts 348°
2026-05-06 19:39 41.50615 1.15508 35944 ft 462 kts 348°
2026-05-06 19:40 41.57021 1.14726 35951 ft 462 kts 348°
2026-05-06 19:40 41.63409 1.13945 35940 ft 460 kts 348°
2026-05-06 19:41 41.69779 1.13164 35947 ft 460 kts 348°
2026-05-06 19:41 41.76150 1.12382 35949 ft 460 kts 349°
2026-05-06 19:42 41.82480 1.11603 35977 ft 459 kts 349°
2026-05-06 19:42 41.88841 1.10819 35980 ft 459 kts 349°
2026-05-06 19:43 41.95208 1.10032 35986 ft 459 kts 349°
2026-05-06 19:43 42.01567 1.09245 35992 ft 459 kts 349°
2026-05-06 19:44 42.07880 1.08462 35981 ft 459 kts 349°
2026-05-06 19:44 42.14237 1.07672 35967 ft 459 kts 349°
2026-05-06 19:45 42.20593 1.06881 35965 ft 459 kts 349°
2026-05-06 19:45 42.26937 1.06089 35949 ft 457 kts 349°
2026-05-06 19:46 42.33226 1.05303 35944 ft 457 kts 349°
2026-05-06 19:46 42.39565 1.04509 35965 ft 458 kts 349°
2026-05-06 19:47 42.45895 1.03710 35962 ft 454 kts 348°
2026-05-06 19:47 42.48928 1.02769 35987 ft 443 kts 333°
2026-05-06 19:47 42.51741 1.01107 36007 ft 441 kts 330°
2026-05-06 19:48 42.57297 0.97562 36002 ft 441 kts 329°
2026-05-06 19:48 42.62813 0.94022 36033 ft 441 kts 329°
2026-05-06 19:49 42.68346 0.90443 35968 ft 439 kts 329°
2026-05-06 19:49 42.73873 0.86865 36016 ft 441 kts 329°
2026-05-06 19:50 42.79408 0.83280 36028 ft 440 kts 329°
2026-05-06 19:50 42.83800 0.80433 36027 ft 440 kts 329°
2026-05-06 19:51 42.89320 0.76848 36030 ft 439 kts 329°
2026-05-06 19:51 42.94844 0.73229 35999 ft 439 kts 330°
2026-05-06 19:52 43.00343 0.69591 36034 ft 441 kts 329°
2026-05-06 19:52 43.05857 0.65946 36018 ft 440 kts 329°
2026-05-06 19:53 43.11335 0.62307 36025 ft 441 kts 329°
2026-05-06 19:53 43.16849 0.58641 36026 ft 441 kts 329°
2026-05-06 19:54 43.22364 0.54969 36022 ft 440 kts 330°
2026-05-06 19:54 43.28207 0.52253 36018 ft 446 kts 338°
2026-05-06 19:55 43.34089 0.49547 36019 ft 446 kts 337°
2026-05-06 19:55 43.39913 0.46790 36013 ft 445 kts 336°
2026-05-06 19:56 43.45764 0.44004 36031 ft 445 kts 337°
2026-05-06 19:56 43.51596 0.41221 36016 ft 443 kts 337°
2026-05-06 19:57 43.57429 0.38431 36011 ft 444 kts 337°
2026-05-06 19:57 43.63221 0.35655 36026 ft 443 kts 337°
2026-05-06 19:58 43.69040 0.32860 36003 ft 442 kts 337°
2026-05-06 19:58 43.74851 0.30063 36008 ft 442 kts 337°
2026-05-06 19:59 43.80665 0.27260 36006 ft 442 kts 337°
2026-05-06 19:59 43.86439 0.24470 36003 ft 442 kts 337°
2026-05-06 20:00 43.92239 0.21661 36003 ft 442 kts 337°
2026-05-06 20:00 43.98038 0.18847 35994 ft 441 kts 337°
2026-05-06 20:01 44.03836 0.16027 36009 ft 442 kts 338°
2026-05-06 20:01 44.09624 0.13207 35992 ft 440 kts 338°
2026-05-06 20:02 44.15367 0.10403 35990 ft 441 kts 338°
2026-05-06 20:02 44.21154 0.07571 35996 ft 441 kts 338°
2026-05-06 20:03 44.25959 0.05216 35996 ft 440 kts 338°
2026-05-06 20:03 44.31736 0.02378 35991 ft 440 kts 338°
2026-05-06 20:04 44.38453 -0.00927 35995 ft 440 kts 338°
2026-05-06 20:04 44.44232 -0.03779 36005 ft 440 kts 338°
2026-05-06 20:05 44.49030 -0.06151 35997 ft 440 kts 338°
2026-05-06 20:05 44.54803 -0.09010 35995 ft 440 kts 338°
2026-05-06 20:06 44.61511 -0.12340 35993 ft 440 kts 338°
2026-05-06 20:06 44.66348 -0.14746 35995 ft 440 kts 338°
2026-05-06 20:07 44.72079 -0.17603 35994 ft 440 kts 338°
2026-05-06 20:07 44.77846 -0.20484 35993 ft 440 kts 338°
2026-05-06 20:08 44.83475 -0.23775 36001 ft 437 kts 332°
2026-05-06 20:08 44.88976 -0.27475 35994 ft 438 kts 333°
2026-05-06 20:09 44.94467 -0.31096 36001 ft 438 kts 333°
2026-05-06 20:09 44.99995 -0.34740 36001 ft 438 kts 333°
2026-05-06 20:10 45.05523 -0.38390 35987 ft 439 kts 333°
2026-05-06 20:10 45.11047 -0.42046 35985 ft 439 kts 333°
2026-05-06 20:11 45.16540 -0.45688 35985 ft 438 kts 333°
2026-05-06 20:11 45.22064 -0.49360 35995 ft 439 kts 333°
2026-05-06 20:12 45.27584 -0.53037 35995 ft 438 kts 333°
2026-05-06 20:12 45.33108 -0.56724 35992 ft 439 kts 333°
2026-05-06 20:13 45.38628 -0.60418 35994 ft 439 kts 333°
2026-05-06 20:13 45.44109 -0.64092 35989 ft 438 kts 333°
2026-05-06 20:14 45.49622 -0.67796 35984 ft 438 kts 333°
2026-05-06 20:14 45.55139 -0.71509 35988 ft 438 kts 333°
2026-05-06 20:15 45.60653 -0.75231 35989 ft 438 kts 333°
2026-05-06 20:15 45.66127 -0.78931 35979 ft 438 kts 333°
2026-05-06 20:16 45.71640 -0.82668 35984 ft 439 kts 333°
2026-05-06 20:16 45.77152 -0.86411 35986 ft 439 kts 333°
2026-05-06 20:17 45.82662 -0.90163 35980 ft 438 kts 333°
2026-05-06 20:17 45.88173 -0.93922 35979 ft 439 kts 333°
2026-05-06 20:18 45.93644 -0.97663 35988 ft 439 kts 333°
2026-05-06 20:18 45.99156 -1.01439 35997 ft 439 kts 333°
2026-05-06 20:19 46.04663 -1.05222 35991 ft 439 kts 333°
2026-05-06 20:19 46.10169 -1.09011 35990 ft 439 kts 333°
2026-05-06 20:20 46.15639 -1.12785 35992 ft 439 kts 333°
2026-05-06 20:20 46.21144 -1.16590 35994 ft 439 kts 333°
2026-05-06 20:21 46.26653 -1.20407 35988 ft 439 kts 333°
2026-05-06 20:21 46.32154 -1.24227 35988 ft 439 kts 333°
2026-05-06 20:22 46.37624 -1.28034 35991 ft 439 kts 333°
2026-05-06 20:22 46.43121 -1.31869 35990 ft 439 kts 333°
2026-05-06 20:23 46.48622 -1.35714 35989 ft 439 kts 333°
2026-05-06 20:23 46.54121 -1.39568 35992 ft 439 kts 333°
2026-05-06 20:24 46.59578 -1.43399 35993 ft 439 kts 333°
2026-05-06 20:24 46.65075 -1.47269 35994 ft 439 kts 333°
2026-05-06 20:25 46.70567 -1.51144 35994 ft 439 kts 333°
2026-05-06 20:25 46.76058 -1.55026 35991 ft 439 kts 333°
2026-05-06 20:26 46.81512 -1.58891 35989 ft 439 kts 333°
2026-05-06 20:26 46.87037 -1.62681 35972 ft 439 kts 340°
2026-05-06 20:27 46.90018 -1.63606 35981 ft 439 kts 354°
2026-05-06 20:27 46.93056 -1.64081 35964 ft 441 kts 350°
2026-05-06 20:27 46.99134 -1.65385 35978 ft 442 kts 350°
2026-05-06 20:28 47.05218 -1.66731 35974 ft 442 kts 350°
2026-05-06 20:28 47.11260 -1.68074 35994 ft 442 kts 350°
2026-05-06 20:29 47.17351 -1.69432 36001 ft 442 kts 350°
2026-05-06 20:29 47.23443 -1.70794 35992 ft 443 kts 350°
2026-05-06 20:30 47.32542 -1.72833 35987 ft 443 kts 350°
2026-05-06 20:31 47.38640 -1.74204 35989 ft 443 kts 350°
2026-05-06 20:31 47.44742 -1.75579 35981 ft 444 kts 350°
2026-05-06 20:32 47.50846 -1.76957 35980 ft 444 kts 350°
2026-05-06 20:32 47.56914 -1.78331 35979 ft 444 kts 350°
2026-05-06 20:33 47.62923 -1.79694 35988 ft 444 kts 349°
2026-05-06 20:33 47.68996 -1.81075 35983 ft 444 kts 350°
2026-05-06 20:34 47.75108 -1.82469 35988 ft 444 kts 349°
2026-05-06 20:34 47.81222 -1.83866 35997 ft 444 kts 350°
2026-05-06 20:35 47.87336 -1.85267 36004 ft 444 kts 350°
2026-05-06 20:35 47.93409 -1.86661 36012 ft 445 kts 350°
2026-05-06 20:36 47.99519 -1.88067 35995 ft 444 kts 350°
2026-05-06 20:36 48.05631 -1.89477 35994 ft 444 kts 350°
2026-05-06 20:37 48.11746 -1.90891 35990 ft 445 kts 349°
2026-05-06 20:37 48.17820 -1.92299 35990 ft 445 kts 349°
2026-05-06 20:38 48.23935 -1.93720 36001 ft 445 kts 349°
2026-05-06 20:38 48.30047 -1.95144 35996 ft 445 kts 349°
2026-05-06 20:39 48.36166 -1.96573 35993 ft 445 kts 349°
2026-05-06 20:39 48.42236 -1.97994 36006 ft 445 kts 350°
2026-05-06 20:40 48.48356 -1.99429 35997 ft 445 kts 349°
2026-05-06 20:40 48.54472 -2.00868 36020 ft 445 kts 349°
2026-05-06 20:41 48.59550 -2.02065 36020 ft 445 kts 349°
2026-05-06 20:41 48.65670 -2.03511 36023 ft 445 kts 349°
2026-05-06 20:42 48.72776 -2.05194 36014 ft 445 kts 349°
2026-05-06 20:42 48.77860 -2.06402 36011 ft 445 kts 349°
2026-05-06 20:43 48.83975 -2.07857 36008 ft 445 kts 349°
2026-05-06 20:43 48.90093 -2.09317 36009 ft 445 kts 349°
2026-05-06 20:44 48.97201 -2.11017 36009 ft 445 kts 349°
2026-05-06 20:44 49.02215 -2.12220 36011 ft 445 kts 349°
2026-05-06 20:45 49.08288 -2.13680 36021 ft 445 kts 349°
2026-05-06 20:45 49.14408 -2.15155 36023 ft 445 kts 349°
2026-05-06 20:46 49.20526 -2.16632 36022 ft 445 kts 349°
2026-05-06 20:46 49.26646 -2.18115 36010 ft 445 kts 349°
2026-05-06 20:47 49.32726 -2.19591 36010 ft 445 kts 349°
2026-05-06 20:47 49.38845 -2.21080 36009 ft 445 kts 349°
2026-05-06 20:48 49.44967 -2.22580 36013 ft 445 kts 348°
2026-05-06 20:48 49.47967 -2.23660 35841 ft 439 kts 344°
2026-05-06 20:48 49.50935 -2.24780 35116 ft 441 kts 345°
2026-05-06 20:48 49.53934 -2.25884 34245 ft 446 kts 345°
2026-05-06 20:49 49.56931 -2.26971 33279 ft 451 kts 345°
2026-05-06 20:49 49.60003 -2.28080 32287 ft 455 kts 345°
2026-05-06 20:49 49.63103 -2.29200 31315 ft 459 kts 345°
2026-05-06 20:49 49.66218 -2.30326 30379 ft 461 kts 345°
2026-05-06 20:50 49.69349 -2.31460 29342 ft 463 kts 345°
2026-05-06 20:50 49.72494 -2.32600 28295 ft 465 kts 345°
2026-05-06 20:50 49.75617 -2.33733 27286 ft 456 kts 345°
2026-05-06 20:50 49.78627 -2.34827 26389 ft 446 kts 345°
2026-05-06 20:51 49.81617 -2.35915 25499 ft 437 kts 345°
2026-05-06 20:51 49.84547 -2.36983 24764 ft 427 kts 345°
2026-05-06 20:51 49.87380 -2.38017 24334 ft 410 kts 345°
2026-05-06 20:51 49.90104 -2.39012 23913 ft 395 kts 345°
2026-05-06 20:52 49.92733 -2.39973 23494 ft 382 kts 345°
2026-05-06 20:52 49.95277 -2.40904 23053 ft 369 kts 345°
2026-05-06 20:52 49.97731 -2.41804 22669 ft 356 kts 345°
2026-05-06 20:52 50.00099 -2.42672 22311 ft 344 kts 345°
2026-05-06 20:53 50.02357 -2.43501 21971 ft 332 kts 345°
2026-05-06 20:53 50.04610 -2.44330 21632 ft 338 kts 345°
2026-05-06 20:53 50.06920 -2.45179 21275 ft 344 kts 345°
2026-05-06 20:53 50.09260 -2.46041 20908 ft 347 kts 345°
2026-05-06 20:54 50.11606 -2.46906 20560 ft 346 kts 345°
2026-05-06 20:54 50.13946 -2.47770 20195 ft 345 kts 345°
2026-05-06 20:54 50.16274 -2.48629 19856 ft 343 kts 345°
2026-05-06 20:54 50.18593 -2.49487 19511 ft 342 kts 345°
2026-05-06 20:55 50.20866 -2.50328 19170 ft 340 kts 345°
2026-05-06 20:55 50.23165 -2.51180 18822 ft 338 kts 345°
2026-05-06 20:55 50.25447 -2.52026 18479 ft 337 kts 345°
2026-05-06 20:55 50.27723 -2.52871 18112 ft 335 kts 345°
2026-05-06 20:56 50.29987 -2.53712 17734 ft 334 kts 345°
2026-05-06 20:56 50.32242 -2.54551 17391 ft 332 kts 345°
2026-05-06 20:56 50.34487 -2.55386 17051 ft 331 kts 345°
2026-05-06 20:56 50.36713 -2.56216 16716 ft 329 kts 345°
2026-05-06 20:57 50.38937 -2.57046 16379 ft 327 kts 346°
2026-05-06 20:57 50.41113 -2.57859 16054 ft 325 kts 346°
2026-05-06 20:57 50.43312 -2.58679 15719 ft 323 kts 346°
2026-05-06 20:57 50.45492 -2.59496 15388 ft 321 kts 345°
2026-05-06 20:58 50.47663 -2.60308 15056 ft 320 kts 346°
2026-05-06 20:58 50.49825 -2.61119 14730 ft 319 kts 346°
2026-05-06 20:58 50.51977 -2.61926 14403 ft 317 kts 346°
2026-05-06 20:58 50.54116 -2.62730 14078 ft 316 kts 346°
2026-05-06 20:59 50.56218 -2.63519 13750 ft 314 kts 346°
2026-05-06 20:59 50.58338 -2.64317 13378 ft 313 kts 346°
2026-05-06 20:59 50.60451 -2.65113 13047 ft 311 kts 346°
2026-05-06 20:59 50.62542 -2.65901 12714 ft 310 kts 346°
2026-05-06 21:00 50.64642 -2.66694 12405 ft 308 kts 346°
2026-05-06 21:00 50.66726 -2.67480 12085 ft 307 kts 346°
2026-05-06 21:00 50.68796 -2.68263 11773 ft 305 kts 346°
2026-05-06 21:00 50.70840 -2.69135 11449 ft 303 kts 338°
2026-05-06 21:01 50.72724 -2.70609 11145 ft 302 kts 330°
2026-05-06 21:01 50.74522 -2.72226 10841 ft 301 kts 330°
2026-05-06 21:01 50.76339 -2.73875 10535 ft 300 kts 330°
2026-05-06 21:01 50.78135 -2.75507 10322 ft 291 kts 330°
2026-05-06 21:02 50.79840 -2.77057 10205 ft 274 kts 330°
2026-05-06 21:02 50.81438 -2.78512 10084 ft 257 kts 330°
2026-05-06 21:02 50.82967 -2.79905 9951 ft 256 kts 330°
2026-05-06 21:02 50.84554 -2.81353 9673 ft 268 kts 330°
2026-05-06 21:03 50.86185 -2.82844 9352 ft 273 kts 330°
2026-05-06 21:03 50.87858 -2.84258 9070 ft 272 kts 337°
2026-05-06 21:03 50.89600 -2.85319 8808 ft 271 kts 340°
2026-05-06 21:03 50.91367 -2.86341 8543 ft 269 kts 340°
2026-05-06 21:04 50.93124 -2.87355 8255 ft 268 kts 340°
2026-05-06 21:04 50.94872 -2.88362 7977 ft 267 kts 340°
2026-05-06 21:04 50.96610 -2.89363 7699 ft 265 kts 340°
2026-05-06 21:04 50.98340 -2.90359 7435 ft 264 kts 340°
2026-05-06 21:05 51.00056 -2.91347 7169 ft 262 kts 340°
2026-05-06 21:05 51.01761 -2.92327 6900 ft 260 kts 340°
2026-05-06 21:05 51.03460 -2.93304 6630 ft 258 kts 340°
2026-05-06 21:05 51.05146 -2.94274 6375 ft 257 kts 340°
2026-05-06 21:06 51.06801 -2.95227 6099 ft 256 kts 340°
2026-05-06 21:06 51.08473 -2.96198 5833 ft 256 kts 340°
2026-05-06 21:06 51.10189 -2.96921 5573 ft 256 kts 349°
2026-05-06 21:06 51.11941 -2.97439 5322 ft 256 kts 350°
2026-05-06 21:07 51.13692 -2.97953 5056 ft 256 kts 350°
2026-05-06 21:07 51.15439 -2.98475 4783 ft 255 kts 350°
2026-05-06 21:07 51.17179 -2.99002 4551 ft 250 kts 350°
2026-05-06 21:07 51.18835 -2.99505 4422 ft 234 kts 350°
2026-05-06 21:08 51.20363 -2.99953 4300 ft 218 kts 354°
2026-05-06 21:08 51.21837 -3.00098 4179 ft 211 kts 359°
2026-05-06 21:08 51.23306 -3.00142 4159 ft 204 kts 360°
2026-05-06 21:08 51.24701 -3.00182 4081 ft 197 kts 360°
2026-05-06 21:09 51.26059 -3.00221 3941 ft 194 kts 360°
2026-05-06 21:09 51.27407 -3.00263 3810 ft 193 kts 360°
2026-05-06 21:09 51.28753 -3.00301 3692 ft 193 kts
2026-05-06 21:09 51.30038 -2.99819 3542 ft 190 kts 26°
2026-05-06 21:10 51.31202 -2.98858 3351 ft 192 kts 30°
2026-05-06 21:10 51.32374 -2.97843 3125 ft 191 kts 30°
2026-05-06 21:10 51.33539 -2.96821 2949 ft 190 kts 33°
2026-05-06 21:10 51.34539 -2.95466 2764 ft 188 kts 48°
2026-05-06 21:11 51.35412 -2.93916 2635 ft 187 kts 50°
2026-05-06 21:11 51.36264 -2.92351 2534 ft 186 kts 53°
2026-05-06 21:11 51.37030 -2.90724 2505 ft 179 kts 57°
2026-05-06 21:11 51.37537 -2.88952 2495 ft 171 kts 76°
2026-05-06 21:12 51.37701 -2.87140 2418 ft 164 kts 87°
2026-05-06 21:12 51.37755 -2.85353 2185 ft 154 kts 88°
2026-05-06 21:12 51.37811 -2.83701 1981 ft 145 kts 87°
2026-05-06 21:12 51.37871 -2.82106 1756 ft 143 kts 86°
2026-05-06 21:13 51.37939 -2.80522 1500 ft 142 kts 85°
2026-05-06 21:13 51.37994 -2.79061 1326 ft 142 kts 86°
2026-05-06 21:13 51.38055 -2.77468 1154 ft 142 kts 86°
2026-05-06 21:13 51.38119 -2.75889 1002 ft 142 kts 85°
2026-05-06 21:14 51.38174 -2.74314 825 ft 142 kts 85°
2026-05-06 21:14 51.38245 -2.72759 634 ft 133 kts 88°
2026-05-06 21:14 51.38283 -2.71548 607 ft 82 kts 86°
2026-05-06 21:14 51.38308 -2.70933 611 ft 36 kts 83°
2026-05-06 21:15 51.38408 -2.70726 616 ft 23 kts 15°
2026-05-06 21:15 51.38461 -2.70729 613 ft 6 kts 310°
2026-05-06 21:15 51.38473 -2.70784 620 ft 5 kts 271°
2026-05-06 21:15 51.38472 -2.70830 615 ft 3 kts 265°
2026-05-06 21:16 51.38471 -2.70841 616 ft 0 kts 263°
2026-05-06 21:16 51.38469 -2.70873 624 ft 8 kts 264°
2026-05-06 21:16 51.38461 -2.71049 617 ft 24 kts 266°
2026-05-06 21:16 51.38451 -2.71331 619 ft 21 kts 266°
2026-05-06 21:17 51.38442 -2.71560 621 ft 14 kts 266°
2026-05-06 21:17 51.38479 -2.71610 618 ft 5 kts 10°
2026-05-06 21:17 51.38491 -2.71608 618 ft 0 kts
2026-05-06 21:17 51.38506 -2.71607 624 ft 5 kts 359°
2026-05-06 21:18 51.38533 -2.71609 619 ft 3 kts 357°
2026-05-06 21:18 51.38540 -2.71609 617 ft 0 kts 357°